User: anonymous   Login
Location: Henau
(47.4548°N, 9.1164°E)
Time: 17:23:42
(UTC+00:00)
Language:

Gbstr 26 Del rocket - Orbit

View from above orbital plane
View from above orbital plane
View from above satellite
View from above satellite

Ground track
Ground track

The orbit data is extracted from the following two-line orbital elements,

1 25876U 99041E   21135.89193330 -.00000135  00000-0  16351-4 0  9999
2 25876  51.7675  77.8485 0530444 233.7081 121.3742 14.04570116115347
Epoch (UTC): 15 May 2021 21:24:23
Eccentricity: 0.0530444
inclination: 51.7675°
perigee height: 493 km
apogee height: 1263 km
right ascension of ascending node: 77.8485°
argument of perigee: 233.7081°
revolutions per day: 14.04570116
mean anomaly at epoch: 121.3742°
orbit number at epoch: 11534

The dashed part of the orbit path shows where the satellite is in the earth's shadow,  

DLR